Location: Christchurch
(43.5330°S, 172.6330°E)
Time: 12:21:10
(UTC+13:00)

ISS - Visible Passes

Search period start: 22 October 2019 00:00
Search period end: 01 November 2019 00:00
Orbit: 411 x 421 km, 51.6° (Epoch: 21 October)

Date Brightness Start Highest point End Pass type
(mag) Time Alt. Az. Time Alt. Az. Time Alt. Az.
22 Oct -2.0 21:47:02 10° W 21:50:10 33° SSW 21:53:08 11° SE visible
22 Oct -0.6 23:24:58 10° SW 23:26:03 15° SW 23:26:03 15° SW visible
23 Oct -2.6 20:58:12 10° W 21:01:30 46° SSW 21:04:48 10° SE visible
23 Oct -1.4 22:36:08 10° WSW 22:38:49 21° S 22:39:41 19° SSE visible
24 Oct -1.4 21:47:13 10° WSW 21:50:02 23° S 21:52:52 10° SE visible
24 Oct -0.7 23:24:46 10° SW 23:26:02 17° SSW 23:26:02 17° SSW visible
25 Oct -1.7 20:58:16 10° WSW 21:01:15 27° SSW 21:04:15 10° SE visible
25 Oct -1.5 22:36:05 10° SW 22:38:45 21° S 22:39:23 20° SSE visible
26 Oct -1.3 21:47:17 10° SW 21:49:55 20° S 21:52:35 10° SE visible
26 Oct -0.9 23:24:16 10° SW 23:25:33 19° SSW 23:25:33 19° SSW visible
27 Oct -1.4 20:58:23 10° WSW 21:01:06 21° S 21:03:48 10° SE visible
27 Oct -1.9 22:35:41 10° SW 22:38:37 25° SSE 22:38:46 25° SSE visible
28 Oct -1.6 21:47:01 10° SW 21:49:47 22° S 21:51:57 13° SE visible
28 Oct -1.1 23:23:38 10° SW 23:24:50 20° SW 23:24:50 20° SW visible
29 Oct -1.5 20:58:16 10° SW 21:00:56 21° S 21:03:36 10° SE visible
29 Oct -2.5 22:35:03 10° SW 22:38:00 39° S 22:38:00 39° S visible
30 Oct -2.2 21:46:27 10° SW 21:49:32 30° SSE 21:51:10 20° ESE visible
30 Oct -1.0 23:23:04 10° WSW 23:24:03 18° WSW 23:24:03 18° WSW visible
31 Oct -1.9 20:57:48 10° SW 21:00:41 25° SSE 21:03:35 10° ESE visible
31 Oct -3.2 22:34:22 10° WSW 22:37:13 59° SW 22:37:13 59° SW visible
